EW4557 Weather Reports


Display with metric or nautical units.
time (UTC)temp
F
wind
direction
speed
MPH
gust
MPH
rain 1hr
in
rain 24hr
in
rain mn
in
humidity
%
barometer
mb
20260904090556 79 0.0 2.0 0.00 0.00 0.00 43 1017.5
20260904085516 80 0 1.0 3.0 0.00 0.00 0.00 43 1017.6
20260904084516 81 0 0.0 3.0 0.00 0.00 0.00 42 1017.5
20260904083516 81 0 0.0 4.0 0.00 0.00 0.00 42 1017.6
20260904082556 81 0 2.0 5.0 0.00 0.00 0.00 42 1017.8
20260904081556 81 0 0.0 5.0 0.00 0.00 0.00 41 1017.6
20260904080556 81 0 3.0 5.0 0.00 0.00 0.00 42 1017.6
20260904075556 80 0 1.0 4.0 0.00 0.00 0.00 42 1017.6
20260904074636 81 0 1.0 2.0 0.00 0.00 0.00 41 1017.5
20260904073516 81 0 1.0 5.0 0.00 0.00 0.00 41 1017.6
20260904072516 81 0 0.0 3.0 0.00 0.00 0.00 40 1017.5
20260904071516 81 0 0.0 2.0 0.00 0.00 0.00 40 1017.5
20260904070517 81 0 0.0 2.0 0.00 0.00 0.00 40 1017.7
20260904065556 81 0 1.0 3.0 0.00 0.00 0.00 40 1017.6
20260904064516 80 0 1.0 5.0 0.00 0.00 0.00 40 1017.5
20260904063516 80 0 1.0 4.0 0.00 0.00 0.00 40 1017.3
20260904061516 78 0 0.0 2.0 0.00 0.00 0.00 42 1017.1
20260904060556 78 0 1.0 4.0 0.00 0.00 0.00 43 1016.7
20260904055515 77 0 1.0 2.0 0.00 0.00 0.00 44 1016.3
20260904054515 77 0 0.0 2.0 0.00 0.00 0.00 44 1016.3
20260904053515 77 0 1.0 2.0 0.00 0.00 0.00 44 1016.2
20260904052515 77 0 1.0 2.0 0.00 0.00 0.00 43 1016.0
20260904051555 78 0 0.0 2.0 0.00 0.00 0.00 42 1016.0
20260904050515 79 0 0.0 1.0 0.00 0.00 0.00 41 1015.9
20260904045555 79 0 0.0 2.0 0.00 0.00 0.00 42 1016.0
20260904043515 81 0.0 1.0 0.00 0.00 0.00 41 1015.9
20260904042515 82 0 0.0 2.0 0.00 0.00 0.00 39 1015.8
20260904035635 85 0.0 1.0 0.00 0.00 0.00 36 1016.1
20260904034555 86 0 1.0 5.0 0.00 0.00 0.00 36 1016.0
20260904032515 87 0 1.0 6.0 0.00 0.00 0.00 34 1015.9
20260904031515 87 0 1.0 4.0 0.00 0.00 0.00 34 1016.0
20260904030515 87 0 2.0 5.0 0.00 0.00 0.00 34 1015.6
20260904025517 87 0 2.0 6.0 0.00 0.00 0.00 33 1015.2
20260904024637 88 0 2.0 10.0 0.00 0.00 0.00 33 1015.1
20260904023557 88 0 2.0 5.0 0.00 0.00 0.00 32 1014.6
20260904021517 87 0 2.0 6.0 0.00 0.00 0.00 30 1013.6
20260904020637 87 0 0.0 2.0 0.00 0.00 0.00 29 1013.3
20260904015637 88 0.0 0.0 0.00 0.00 0.00 27 1012.9
20260904014517 89 0.0 0.0 0.00 0.00 0.00 27 1012.8
20260904013516 90 0.0 0.0 0.00 0.00 0.00 27 1012.6
20260904012516 91 0.0 2.0 0.00 0.00 0.00 26 1012.4
20260904011516 93 0 1.0 3.0 0.00 0.00 0.00 25 1012.5
20260904010516 94 0 1.0 6.0 0.00 0.00 0.00 24 1012.5
20260904005516 94 0 5.0 11.0 0.00 0.00 0.00 23 1012.4
20260904004516 95 0 4.0 9.0 0.00 0.00 0.00 23 1012.5
20260904003636 95 0 5.0 12.0 0.00 0.00 0.00 22 1012.6
20260904002556 96 0 4.0 10.0 0.00 0.00 0.00 22 1012.7
20260904001516 96 0 2.0 6.0 0.00 0.00 0.00 21 1012.7
20260904000516 97 0 4.0 9.0 0.00 0.00 0.00 20 1012.8
20260903235636 98 0 3.0 11.0 0.00 0.00 0.00 20 1012.8
20260903233516 99 0 5.0 12.0 0.00 0.00 0.00 20 1012.8
20260903232516 99 0 5.0 11.0 0.00 0.00 0.00 19 1012.8
20260903231636 99 0 3.0 9.0 0.00 0.00 0.00 19 1012.9
20260903230636 99 0 4.0 9.0 0.00 0.00 0.00 19 1013.0
20260903225636 99 0 4.0 11.0 0.00 0.00 0.00 20 1013.2
20260903224516 99 0 6.0 13.0 0.00 0.00 0.00 19 1013.4
20260903223636 98 0 5.0 12.0 0.00 0.00 0.00 19 1013.3
20260903222516 99 0 7.0 12.0 0.00 0.00 0.00 19 1013.5
20260903221516 99 0 7.0 14.0 0.00 0.00 0.00 19 1013.5
20260903220516 99 0 6.0 12.0 0.00 0.00 0.00 19 1013.7
20260903214556 99 0 6.0 13.0 0.00 0.00 0.00 20 1013.9
20260903213636 99 0 5.0 14.0 0.00 0.00 0.00 20 1014.2
20260903212516 98 0 3.0 15.0 0.00 0.00 0.00 20 1014.1
20260903211516 98 0 6.0 13.0 0.00 0.00 0.00 20 1014.1
20260903210516 99 0 6.0 14.0 0.00 0.00 0.00 20 1014.4
20260903205556 98 0 7.0 18.0 0.00 0.00 0.00 21 1014.5
20260903204556 98 0 6.0 12.0 0.00 0.00 0.00 21 1014.8
20260903203516 98 0 5.0 11.0 0.00 0.00 0.00 21 1015.0
20260903202516 97 0 4.0 13.0 0.00 0.00 0.00 22 1015.0
20260903201556 97 0 5.0 13.0 0.00 0.00 0.00 22 1015.4
20260903200516 95 0 4.0 17.0 0.00 0.00 0.00 23 1015.5
20260903195516 97 0 6.0 13.0 0.00 0.00 0.00 22 1016.0
20260903194516 96 0 6.0 15.0 0.00 0.00 0.00 22 1016.1
20260903193636 96 0 6.0 13.0 0.00 0.00 0.00 22 1016.4
20260903185556 97 0 4.0 12.0 0.00 0.00 0.00 24 1017.9
20260903184556 96 0 2.0 6.0 0.00 0.00 0.00 23 1018.1
20260903183556 96 0 4.0 9.0 0.00 0.00 0.00 23 1018.2
20260903182515 95 0 2.0 11.0 0.00 0.00 0.00 23 1018.3
20260903181515 96 0 3.0 8.0 0.00 0.00 0.00 22 1018.9
20260903180556 95 0 4.0 9.0 0.00 0.00 0.00 23 1019.0
20260903174515 94 0 3.0 10.0 0.00 0.00 0.00 23 1019.5
20260903173555 93 0 2.0 5.0 0.00 0.00 0.00 23 1019.4
20260903171515 93 0 2.0 5.0 0.00 0.00 0.00 23 1019.5
20260903170555 92 0 2.0 5.0 0.00 0.00 0.00 23 1019.6
20260903165555 91 0 2.0 8.0 0.00 0.00 0.00 23 1019.6
20260903164515 91 0 3.0 9.0 0.00 0.00 0.00 24 1019.5
20260903163515 89 0 3.0 5.0 0.00 0.00 0.00 25 1019.3
20260903162515 89 0 3.0 9.0 0.00 0.00 0.00 26 1018.7
20260903161555 89 0 4.0 8.0 0.00 0.00 0.00 27 1018.2
20260903160635 88 0 2.0 5.0 0.00 0.00 0.00 28 1018.1
20260903154515 87 0 2.0 6.0 0.00 0.00 0.00 30 1018.2
20260903153555 86 0 3.0 5.0 0.00 0.00 0.00 31 1018.2
20260903151515 86 0 2.0 5.0 0.00 0.00 0.00 34 1018.6
20260903145515 82 0 1.0 3.0 0.00 0.00 0.00 38 1018.8
20260903144555 81 0 0.0 1.0 0.00 0.00 0.00 40 1018.8
20260903143555 79 0 0.0 2.0 0.00 0.00 0.00 44 1018.7
20260903142515 77 0 1.0 3.0 0.00 0.00 0.00 46 1018.6
20260903141515 75 0.0 0.0 0.00 0.00 0.00 49 1018.3
20260903140555 74 0 2.0 3.0 0.00 0.00 0.00 53 1018.3
20260903135515 72 0 2.0 5.0 0.00 0.00 0.00 56 1018.2
20260903134555 69 0 1.0 3.0 0.00 0.00 0.00 60 1018.0
20260903133555 68 0 2.0 4.0 0.00 0.00 0.00 63 1017.9
20260903132635 65 0 0.0 2.0 0.00 0.00 0.00 68 1017.5
20260903131515 64 0.0 0.0 0.00 0.00 0.00 69 1017.2
20260903130515 63 0 0.0 3.0 0.00 0.00 0.00 69 1017.1
20260903125515 62 0.0 0.0 0.00 0.00 0.00 69 1016.8
20260903124515 62 0.0 0.0 0.00 0.00 0.00 68 1016.8
20260903123515 63 0.0 1.0 0.00 0.00 0.00 67 1017.0
20260903122555 63 0 1.0 3.0 0.00 0.00 0.00 66 1016.9
20260903121515 64 0 2.0 3.0 0.00 0.00 0.00 66 1017.0
20260903120555 65 0.0 1.0 0.00 0.00 0.00 64 1017.3
20260903115517 65 0 2.0 6.0 0.00 0.00 0.00 65 1017.2
20260903114517 65 0 0.0 3.0 0.00 0.00 0.00 65 1017.0
20260903113516 64 0 2.0 9.0 0.00 0.00 0.00 67 1016.8
20260903112517 63 0 1.0 3.0 0.00 0.00 0.00 67 1016.5
20260903111557 64 0.0 0.0 0.00 0.00 0.00 65 1016.6
20260903110517 64 0.0 0.0 0.00 0.00 0.00 64 1016.7
20260903105516 64 0.0 0.0 0.00 0.00 0.00 64 1016.8
20260903104516 65 0.0 0.0 0.00 0.00 0.00 65 1017.0
20260903103516 64 0.0 0.0 0.00 0.00 0.00 66 1017.1
20260903102557 63 0.0 2.0 0.00 0.00 0.00 64 1016.8
20260903101516 63 0 0.0 1.0 0.00 0.00 0.00 64 1016.7
20260903095557 64 0.0 0.0 0.00 0.00 0.00 61 1016.9
20260903094556 64 0.0 0.0 0.00 0.00 0.00 61 1016.9
20260903093556 65 0.0 0.0 0.00 0.00 0.00 60 1016.9
20260903092516 65 0.0 0.0 0.00 0.00 0.00 59 1016.8
20260903091516 65 0.0 0.0 0.00 0.00 0.00 60 1016.9